Miscellaneous Local Product
Issued by NWS Hastings, NE

Home | Current Version | Previous Version | Graphics & Text | Print | Product List | Glossary On
Versions: 1 2 3 4 5 6 7 8 9 10 11 12 13 14 15 16 17 18 19 20 21 22 23 24 25 26 27 28 29 30 31 32 33 34 35 36 37 38 39 40 41 42 43 44 45 46 47 48 49 50
000
AXUS43 KGID 030302
MISGRI

GID CWA HOURLY WEATHER ROUNDUP
NATIONAL WEATHER SERVICE HASTINGS NE
1000 PM CDT TUE JUN 02 2015

NOTE: "FAIR" INDICATES FEW OR NO CLOUDS BELOW 12,000 FEET WITH NO
SIGNIFICANT WEATHER AND/OR OBSTRUCTIONS TO VISIBILITY.

...SOUTH CENTRAL NEBRASKA...

CITY           SKY/WX    TMP DP  RH WIND       PRES   REMARKS
GRAND ISLAND   PTCLDY    75  65  70 SE17G23   29.83S
HASTINGS       PTCLDY    75  67  76 SE13G21   29.83R
KEARNEY        PTCLDY    73  64  73 SE12      29.81F
ORD            PTCLDY    76  63  64 SE10      29.77F
YORK           CLEAR     73  66  78 SE14G21   29.85S
AURORA         MOCLDY    76  65  70 SE14      29.84S
LEXINGTON      PTCLDY    75  66  74 SE10      29.77F
HOLDREGE       CLEAR     74  64  69 SE10      29.80F
HEBRON         MOCLDY    76  65  68 SE14      29.85R

...NEBRASKA PANHANDLE...

CITY           SKY/WX    TMP DP  RH WIND       PRES   REMARKS
CHADRON        MOCLDY    59  54  83 W5        29.82R
ALLIANCE       PTCLDY    61  53  75 N3        29.83R
SCOTTSBLUFF    PTCLDY    66  49  54 SE5       29.83S
SIDNEY         PTCLDY    68  63  84 SE7       29.83R

...WESTERN AND NORTH CENTRAL NEBRASKA...

CITY           SKY/WX    TMP DP  RH WIND       PRES   REMARKS
VALENTINE      TSTM      62  58  86 W29G41    29.88R FOG
AINSWORTH      CLOUDY    71  66  82 S8        29.84R
ONEILL         MOCLDY    71  65  81 SE5       29.82R
BROKEN BOW     MOCLDY    74  65  73 SE9       29.80S
IMPERIAL       CLEAR     72  65  78 SE10      29.77F
NORTH PLATTE   MOCLDY    73  66  78 E8        29.78R
MCCOOK         CLEAR     77  65  66 SE12      29.76F

...EASTERN NEBRASKA...

CITY           SKY/WX    TMP DP  RH WIND       PRES   REMARKS
NORFOLK        PTCLDY    69  61  75 SE16      29.85S
SO SIOUX CITY  CLEAR     70  58  65 SE14      29.88S
TEKAMAH        CLEAR     68  58  70 SE17      29.90R
COLUMBUS       CLEAR     70  61  73 SE15G22   29.88R
ALBION         PTCLDY    74  63  67 SE12      29.83S
OMAHA EPPLEY   PTCLDY    67  58  72 SE14      29.91R
OFFUTT AFB     CLEAR     66  58  75 SE13      29.91R
MILLARD        CLEAR     68  60  75 SE10G17   29.91R
LINCOLN        CLEAR     69  61  75 SE15      29.90R
NEBRASKA CITY  PTCLDY    64  59  84 SE14      29.92S
BEATRICE       CLEAR     70  64  79 SE14      29.88S
FALLS CITY     MOCLDY    67  59  75 SE12      29.91F

...NORTHERN KANSAS...

CITY           SKY/WX    TMP DP  RH WIND       PRES   REMARKS
GOODLAND       CLEAR     69  61  75 SE8       29.80S
HILL CITY      CLEAR     77  66  68 SE9       29.77S
NORTON         CLEAR     75  61  60 SE9       29.78S
PHILLIPSBURG   CLEAR     79  66  65 E8        29.79R
SMITH CENTER   CLEAR     73  66  78 E12       29.80S
HAYS           CLEAR     75  63  64 SE13      29.80S
RUSSELL        CLEAR     77  67  71 SE16      29.79R
CONCORDIA      CLEAR     75  67  76 SE15      29.84S
SALINA         CLEAR     78  67  68 SE14      29.83R
TOPEKA         CLEAR     71  64  78 E13       29.93R



USA.gov is the U.S. government's official web portal to all federal, state and local government web resources and services.